Location: Unspecified
(0.0000°N, 0.0000°E)
Time: 23:54:28
(UTC+00:00)

A-11 Canister half - Pass Details

Date: 12 February 2023
Orbit: 1526 x 1682 km, 47.3° (Epoch: 29 March)

Event Time Altitude Azimuth Distance (km) Brightness Sun altitude
Rises 12:06:40 0° 321° (NW) 4,754 11.5 76.2°
Reaches altitude 10° 12:09:42 10° 321° (NW) 3,790 11.1 76.3°
Maximum altitude 12:19:25 89° 49° (NE) 1,633 11.3 76.3°
Drops below altitude 10° 12:29:29 10° 140° (SE) 3,916 11.4 75.8°
Sets 12:32:40 0° 140° (SE) 4,918 11.8 75.6°
